Location: Ocean City
(38.3360°N, 75.0850°W)
Time: 14:05:44
(UTC-04:00)

Max Valier Satellite - Pass Details

Date: 26 May 2019
Orbit: 492 x 507 km, 97.4° (Epoch: 19 June)

Event Time Altitude Azimuth Distance (km) Brightness Sun altitude
Exits shadow 21:11:36 14° 112° (ESE) 1,473 ? -10.3°
Maximum altitude 21:13:40 21° 70° (ENE) 1,156 ? -10.7°
Drops below altitude 10° 21:16:31 10° 19° (NNE) 1,719 ? -11.1°
Sets 21:18:57 0° 4° (N) 2,611 ? -11.5°
